Location: Hohenfelde
(53.8441°N, 9.6220°E)
Time: 12:38:55
(UTC+00:00)

Cosmos 724 - Pass Details

Date: 14 July 2020
Orbit: 858 x 936 km, 65.6° (Epoch: 13 August)

Event Time Altitude Azimuth Distance (km) Brightness Sun altitude
Exits shadow 00:59:21 13° 226° (SW) 2,260 5.9 -12.0°
Maximum altitude 01:04:30 84° 313° (NW) 879 4.3 -11.7°
Drops below altitude 10° 01:10:24 10° 43° (NE) 2,540 8.0 -11.3°
Sets 01:12:55 0° 44° (NE) 3,492 8.9 -11.2°
